www.pogodaiklimat.ru

Погода и климат >> Архив погоды >> Россия >> Ростовская область >> Казанская


ПОГОДА в Казанской

  • Прогноз погоды в Казанской
  • Монитор погоды в Казанской

АРХИВ ПОГОДЫ в Казанской

Время (UTC), дата Ветер
(напр.,м/с)
 
Видим.   Явления Облачность Т
(С)
Тd
(С)
f
(%)
Тe
(С)
Тes
(С)
Комфортность P
(гПа)
Po
(гПа)
Тmin
(С)
Tmax
(С)
R
(мм)
R24
(мм)
S
(см)
18 19.05 штиль 0 20 км ясно +15.1 +9.5 69 +15 +15 1015.7 1007.2
21 19.05 З 1 20 км ясно +15.1 +9.5 69 +16 +16 1015.7 1007.8
00 20.05 штиль 0 20 км ясно +10.6 +7.7 82 +10 +10 1017.7 1009.1
03 20.05 штиль 0 20 км ясно +10.6 +9.0 90 +10 +11 1019.2 1010.6 +9.3
06 20.05 штиль 0 20 км 4/0
[Ci fib]
+19.2 +4.7 38 +19 +32 опасность
простуды
1020.0 1011.6
09 20.05 СЗ 1 20 км 10/0
[Cs]
+22.3 +2.6 27 +22 +38 комфорт 1019.8 1011.5
12 20.05 СЗ 3 20 км 10/0
[Cs]
+23.3 +0.9 23 +22 +30 комфорт 1018.9 1010.6
15 20.05 С 2 20 км 4/0
[Ci fib]
+22.9 -1.8 19 +22 +24 комфорт 1018.8 1010.5 +24.2
18 20.05 штиль 0 20 км ясно +14.1 +7.4 64 +14 +14 1020.1 1011.6
21 20.05 штиль 0 20 км ясно +9.8 +6.7 81 +9 +9 1021.2 1012.5
00 21.05 штиль 0 20 км ясно +7.7 +7.0 95 +7 +7 1021.5 1012.7
03 21.05 штиль 0 20 км ясно +8.0 +7.6 97 +7 +9 1022.1 1013.4 +6.3
06 21.05 Ю 1 20 км ясно +18.4 +4.6 40 +20 +31 1022.3 1013.8
09 21.05 В 2 20 км 3/0
[Ci fib]
+23.6 -0.3 21 +22 +38 комфорт 1021.6 1013.3
12 21.05 Ю 2 20 км ясно +24.0 +0.4 21 +23 +35 комфорт 1020.2 1012.0
15 21.05 ЮВ 1 20 км 10/0
[Cs]
+24.1 +1.0 22 +23 +25 комфорт 1018.9 1010.7 +24.6
18 21.05 штиль 0 20 км 3/0
[Ci fib]
+14.6 +11.8 83 +14 +14 1019.1 1010.5
21 21.05 ЮВ 1 20 км 3/0
[Ci fib]
+12.1 +7.2 72 +12 +12 1019.0 1010.4
00 22.05 В 1 20 км 3/0
[Ci fib]
+9.5 +6.7 83 +9 +9 1018.3 1009.6
03 22.05 ЮВ 2 20 км 10/0
[Ac As]
+10.9 +6.3 73 +10 +10 1017.6 1009.0 +8.8
06 22.05 Ю 3 20 км 10/3 1000 м
[Cb cap Cs]
+18.8 +7.3 47 +19 +24 1016.6 1008.3
09 22.05 ЮВ 3 20 км 10/0
[Ac cast Cs]
+22.9 +4.7 31 +23 +30 комфорт 1015.2 1006.9
12 22.05 Ю 4
{10}
20 км 10/0
[Ac As Cs]
+23.9 +3.3 26 +23 +28 комфорт 1013.6 1005.4
15 22.05 Ю 4
{11}
20 км 8/0
[Ac trans]
+23.2 +3.5 28 +23 +24 комфорт 1012.6 1004.3 +24.6
18 22.05 штиль 0 20 км 8/0
[Ac As Cs]
+14.5 +7.8 64 +14 +14 1011.6 1003.1
21 22.05 ЮВ 2 20 км 10/0
[Ac und]
+14.9 +7.3 60 +15 +15 1009.9 1001.5
00 23.05 В 1 4000 м слаб. ливневой дождь 10/10 600 м
[Cb cap]
+12.8 +12.2 96 +13 +13 1008.6 1000.1
03 23.05 З 1 20 км {ливн. осадки} 10/10 600 м
[Cb cap]
+12.4 +12.0 97 +12 +12 1008.0 999.5 +12.3 3
06 23.05 З 3 10 км слаб. ливневой дождь 10/10 300 м
[Cb cap]
+13.8 +13.0 95 +13 +13 1008.3 999.9
09 23.05 З 4 20 км {ливн. осадки} 8/4 600 м
[Cb cap Ac lent Ci sp]
+18.6 +12.0 65 +19 +24 1007.8 999.5
12 23.05 З 3 20 км {ливн. осадки} 8/6 600 м
[Cb cap Ac trans]
+20.0 +11.2 57 +22 +25 комфорт 1006.9 998.6
15 23.05 ЮЗ 1 20 км 9/8 600 м
[Cb cap Ac trans]
+19.1 +11.5 61 +21 +22 комфорт 1006.2 997.9 +20.3 4
18 23.05 З 2 20 км 4/3 600 м
[Cb calv Ci fib]
+16.7 +12.7 77 +17 +17 1006.3 998.0
21 23.05 З 1 20 км ясно +15.4 +12.6 83 +16 +16 1006.6 998.2
00 24.05 З 2 20 км ясно +13.7 +12.2 91 +13 +13 1006.9 998.5
03 24.05 СЗ 1 20 км ясно +14.9 +12.9 88 +15 +17 1007.3 998.9 +12.7
06 24.05 СЗ 2 20 км ясно +21.1 +14.3 65 +24 +34 комфорт 1007.6 999.4
09 24.05 СЗ 2 20 км 3/3 1000 м
[Cu med, cong]
+24.4 +13.7 51 +27 +39 жарко 1008.0 999.9
12 24.05 З 2 20 км 3/3 1000 м
[Cu med, cong]
+27.0 +11.4 38 +28 +36 жарко 1007.8 999.7
15 24.05 Ю 1 20 км {ливн. осадки} 6/3 600 м
[Cb cap Ac trans]
+23.9 +14.5 56 +27 +28 жарко 1008.0 999.9 +28.2 0.3
18 24.05 Ю 1 20 км {ливн. осадки} 8/3 600 м
[Cb cap Ac trans]
+18.5 +16.5 88 +20 +20 1010.1 1001.8
21 24.05 штиль 0 20 км ясно +15.8 +14.9 94 +16 +16 1010.2 1001.8
00 25.05 штиль 0 20 км ясно +14.0 +13.4 96 +14 +14 1010.6 1002.1
03 25.05 ЮВ 4 20 км 10/0
[Cs]
+15.9 +14.1 89 +15 +16 1011.2 1002.8 +13.7
06 25.05 ЮВ 3 20 км 6/0
[Ci fib]
+20.6 +13.1 62 +23 +31 комфорт 1010.9 1002.6
09 25.05 ЮВ 4 20 км 10/0
[Cs]
+23.5 +12.0 48 +25 +34 комфорт 1010.2 1002.0
12 25.05 В 4
{10}
20 км 10/4 600 м
[Cu med, cong Cs]
+25.9 +12.9 45 +28 +32 жарко 1008.3 1000.2
15 25.05 ЮВ 3
{11}
20 км ясно +23.7 +11.9 48 +25 +27 комфорт 1007.5 999.4 +26.2
18 25.05 Ю 2 20 км 10/8 600 м
[Cb cap Ac As]
+18.6 +14.4 77 +20 +20 1007.8 999.5
21 25.05 ЮВ 1 20 км {ливн. осадки} 9/4 600 м
[Cb cap Ac trans]
+16.5 +16.2 98 +17 +17 1006.1 997.7
00 26.05 ЮВ 1 20 км {ливн. осадки} 10/8 600 м
[Cb cap Ac As]
+15.6 +15.6 100 +16 +16 1004.7 996.4
03 26.05 ЮВ 1 20 км {ливн. осадки} 9/8 600 м
[Cb cap Ac trans]
+16.0 +16.0 100 +17 +17 1004.0 995.7 +15.5 2
06 26.05 Ю 2 20 км в посл. час ливневой дождь 10/10 600 м
[Cb cap]
+18.3 +16.0 86 +19 +19 1003.3 995.1
09 26.05 З 3 20 км в посл. час ливневой дождь 10/10 600 м
[Cb cap]
+16.6 +16.6 100 +16 +16 1003.4 995.1
12 26.05 З 3 20 км {ливн. осадки} 10/10 600 м
[Cb cap]
+18.8 +16.9 89 +20 +20 1003.7 995.5
15 26.05 ЮЗ 3 20 км {ливн. осадки} 10/10 600 м
[Cb cap]
+18.8 +17.0 89 +20 +20 1004.8 996.6 +20.4 15

 

Местоположение метеостанции Казанская (Ростовская область, Россия): широта 49.80 долгота 41.15 высота над уровнем моря 72 м.

В архиве по умолчанию представлена погода в Казанской за последнюю неделю. Архивные данные за месяц целиком и за предыдущие месяцы, начиная с января 2011 года, Вы можете получить, выбрав интересующий диапазон дат из раскрывающегося списка и нажав кнопку "Ввод!".


*Определитесь, кто Вы:
робот инопланетянин человек

Внимание! Время в таблицах - всемирное. Для получения местного времени необходимо прибавить поправку, которая равна 3 ч.

Смотрите также архив погоды в соседних городах и на ближайших метеорологических станциях:

Погода в Богучаре (Воронежская область, Россия) (44 км)
Погода в Калаче (Воронежская область, Россия) (69 км)
Погода в Боковской (Ростовская область, Россия) (81 км)
Погода в Чертково (Ростовская область, Россия) (85 км)
Погода в Павловск (Воронежская область, Россия) (85 км)
Погода в Миллерово (Ростовская область, Россия) (112 км)
Погода в Серафимовиче (Волгоградская область, Россия) (117 км)
Погода в Урюпинске (Волгоградская область, Россия) (127 км)
Погода в Беловодске (Луганская область, Украина) (130 км)
Погода в Новоаннинском (Волгоградская область, Россия) (136 км)

Пояснения к столбцам:

Ветер - указаны скорость ветра в м/с - средняя за 10 мин, порывы в срок и между сроками (в фигурных скобках) и направление, откуда дует ветер: С - северный, СВ - северо-восточный, В - восточный, ЮВ - юго-восточный, Ю - южный, ЮЗ - юго-западный, З - западный, СЗ - северо-западный.
Видимость - горизонтальная дальность видимости в метрах или километрах. При видимости от 1 до 10 км при отсутствии осадков обычно наблюдается дымка, при ухудшении видимости до 1 км и менее - туман. В сухую погоду видимость может ухудшаться дымом, пылью или мглою.
Явления - указаны атмосферные явления, наблюдавшиеся в срок или в последний час перед сроком; фигурными скобками обозначены явления, наблюдавшиеся между сроками (за 1-3 часа до срока); квадратными скобками обозначены град или гололедные отложения с указанием их диаметра в мм.
Облачность - указаны через наклонную черту общая и нижняя облачность в баллах и высота нижней границы облаков в метрах; квадратными скобками обозначены формы облаков: Ci - перистые, Cs - перисто-слоистые, Cc - перисто-кучевые, Ac - высококучевые, As - высокослоистые, Sc - слоисто-кучевые, Ns - слоисто-дождевые, Cu - кучевые, Cb - кучево-дождевые. Подробнее классификацию облаков см. в Атласе облаков (PDF).
T - Температура воздуха - температура, измеренная на высоте 2 м над землей.
Td - Температура точки росы - температура, при понижении до которой содержащийся в воздухе водяной пар достигнет насыщения.
f - Относительная влажность воздуха - влажноcть воздуха, измеренная на высоте 2 м над землей.
Te - Эффективная температура - температура, которую ощущает одетый по сезону человек в тени. Характеристика душности погоды. При расчете учитывается влияние влажности воздуха и скорости ветра на теплоощущения человека.
Tes - Эффективная температура на солнце - температура, которую ощущает человек, с поправкой на солнечный нагрев. Характеристика знойности погоды. Зависит от высоты солнца над горизонтом, облачности и скорости ветра. Ночью, в пасмурную погоду, а также при ветре 12 м/с и более поправка равна нулю.
P - Атмосферное давление - приведенное к уровню моря атмосферное давление.
Po - Атмосферное давление - измеренное на уровне метеостанции атмосферное давление.
Tmin - Минимальная температура - минимум температуры воздуха на высоте 2 м над землей.
Tmax - Максимальная температура - максимум температуры воздуха на высоте 2 м над землей.
R - Количество осадков - Количество выпавших осадков за период времени, мм. При наведении курсора мыши на число - период времени, за который выпало указанное количество осадков.
R24 - Количество осадков - Количество выпавших осадков за 24 часа, мм.
S - Снежный покров - Высота снежного покрова, см. При наведении курсора мыши на число - состояние снежного покрова и степень покрытия местности в баллах.